GFSSGP_925_spd_120.txt.gz
Wind_Speed
11 6 7 4 4 5 3 6 3 6 1 3 3 6 7 1 4 4 5 5 6 19 24 24 22 22 22 21 21 20 19 19 19 19 19 17 17 17 17 17 18 17 16 16 15 14 12 10 8
9 4 3 2 4 2 5 5 6 4 5 4 2 4 4 3 4 6 3 7 5 17 22 24 23 21 21 20 20 19 19 19 20 20 19 18 17 17 17 17 16 16 15 14 14 13 11 9 7
8 3 3 3 3 4 4 3 7 7 5 2 1 2 5 6 4 5 8 9 9 14 21 23 22 21 19 19 18 19 19 19 20 20 20 19 18 18 18 17 16 14 13 12 13 12 9 8 7
6 6 4 3 6 8 2 9 10 5 4 5 0 4 4 2 4 9 11 9 11 14 19 21 23 22 20 19 18 18 19 19 20 20 20 20 19 18 18 17 16 14 12 11 9 10 9 7 6
4 3 3 2 6 5 6 7 6 4 2 1 2 2 4 5 15 13 10 9 8 14 17 21 22 23 21 20 19 18 18 19 20 20 21 21 20 18 18 17 16 15 13 11 10 10 9 8 7
4 3 2 4 5 4 6 7 7 6 6 6 3 2 2 3 12 11 10 7 5 11 17 18 21 23 22 20 19 18 18 19 20 21 21 21 20 18 18 18 17 17 15 12 11 10 9 8 8
4 3 5 4 5 7 2 9 6 6 5 4 5 4 1 4 9 7 5 7 6 10 18 18 19 22 21 20 18 18 18 19 19 20 20 21 20 19 18 19 19 18 16 13 11 10 10 10 9
3 3 3 3 3 7 2 4 6 7 4 9 3 3 4 5 6 8 7 10 10 12 17 20 20 21 22 22 20 19 18 19 20 19 20 21 21 20 19 19 20 19 18 16 14 12 11 11 11
2 2 2 4 3 6 4 7 4 5 4 4 7 3 4 11 5 12 13 10 12 14 17 19 21 21 21 24 24 22 20 19 19 19 20 21 22 23 22 21 21 21 20 18 16 14 13 13 13
4 4 7 7 5 9 14 5 4 2 5 5 6 8 9 5 5 4 6 7 14 15 18 21 21 21 21 25 26 25 23 23 23 23 22 23 23 24 23 23 23 23 22 20 19 17 15 15 15
4 6 5 10 13 13 14 15 6 3 3 6 7 7 8 5 1 2 3 4 10 12 18 23 24 21 20 24 25 25 25 24 24 24 25 25 24 24 25 25 25 26 25 24 22 20 19 18 18
4 6 6 8 7 7 9 10 12 6 9 8 9 8 4 7 6 5 4 6 12 10 11 24 25 22 21 21 24 24 23 24 25 25 25 26 26 27 28 29 29 29 29 28 26 25 23 21 20
5 5 6 7 9 8 11 8 7 13 15 8 10 9 9 8 8 8 7 7 10 8 5 16 20 20 19 20 19 21 24 26 25 25 26 26 28 30 30 31 31 31 31 30 29 28 27 25 22
6 9 10 6 10 8 13 10 6 11 12 15 10 11 11 9 11 11 8 1 15 20 19 8 8 8 11 17 15 17 22 26 28 30 31 32 33 34 34 33 32 32 32 32 31 31 30 28 26
6 10 11 4 6 7 13 11 12 14 11 16 18 14 11 11 13 13 11 22 23 23 22 24 20 15 10 2 1 6 13 14 23 32 31 31 33 35 35 35 34 36 35 33 33 33 31 29 28
7 6 2 5 2 8 6 18 11 14 11 18 15 11 11 11 11 14 21 26 25 25 23 21 18 15 12 10 6 7 5 14 18 20 22 22 30 38 35 35 35 38 35 37 36 35 33 32 31
3 7 5 5 8 5 4 22 4 12 11 12 9 9 7 8 9 21 26 24 24 26 25 24 19 15 11 9 8 8 7 5 8 12 14 17 46 36 30 32 34 37 34 37 36 35 35 34 35
7 6 4 3 6 9 11 22 17 7 10 11 10 9 7 9 14 19 28 28 27 27 25 23 19 18 16 13 11 11 12 13 15 13 14 14 14 34 43 39 32 37 36 37 37 37 37 35 36
6 9 15 11 7 10 12 19 18 13 8 9 10 8 3 15 14 22 26 27 27 26 26 24 23 22 20 23 25 22 23 23 20 23 17 14 11 9 9 24 32 35 35 40 40 32 30 31 31
13 14 15 16 12 13 12 12 7 7 9 9 13 11 12 12 11 14 20 28 30 28 26 25 23 22 24 23 22 17 24 16 23 20 23 21 19 19 16 14 16 31 35 33 41 40 28 29 24
17 12 13 16 10 3 5 13 7 18 14 15 15 3 15 13 12 13 16 21 26 28 26 24 23 22 23 23 22 22 23 23 23 29 33 29 28 26 25 22 20 18 23 36 37 39 32 21 17
17 6 11 8 7 8 6 12 12 16 12 6 7 13 16 14 14 11 12 20 24 24 26 25 23 22 21 23 23 21 15 16 20 28 31 35 34 32 29 26 24 24 24 21 34 40 35 34 22
20 11 7 3 5 3 23 2 9 7 14 6 10 13 13 12 13 12 13 19 23 26 24 23 21 22 24 24 21 21 20 18 23 24 30 34 34 30 29 27 28 25 24 26 22 32 32 36 28
17 4 7 4 1 4 16 6 6 6 8 12 14 13 10 14 14 13 18 20 22 25 23 23 24 21 23 24 23 21 21 23 24 25 25 25 29 34 32 31 29 28 27 23 25 26 36 36 36
3 5 2 3 1 6 4 2 3 7 14 15 12 16 14 12 14 14 14 18 17 18 22 20 24 22 25 26 25 22 21 21 20 22 25 28 27 28 31 32 31 28 28 27 28 25 32 36 35
6 8 5 4 3 4 2 5 3 7 11 13 8 8 15 10 11 13 11 13 12 12 20 23 24 22 28 27 26 24 22 19 20 20 23 27 29 32 33 34 32 31 29 29 30 32 28 36 38
2 3 6 1 2 2 3 2 4 8 10 10 7 4 8 8 7 12 13 14 16 23 24 25 23 26 27 24 21 21 21 20 20 23 24 26 28 30 31 33 36 35 32 28 25 29 34 30 39
5 7 3 2 3 5 3 3 4 10 11 9 8 7 6 7 7 11 13 14 13 15 15 19 21 21 21 22 22 22 22 21 23 24 24 26 28 29 31 33 35 35 33 30 28 30 30 32 35
2 2 2 5 4 3 2 4 5 9 9 11 10 12 9 9 9 8 10 11 10 13 20 23 23 20 21 23 23 24 25 25 24 23 24 25 28 28 30 32 34 35 34 32 32 32 32 33 34
3 5 6 4 4 4 2 5 4 10 12 12 13 10 8 9 9 9 11 11 14 18 21 20 19 18 21 22 23 25 25 27 26 26 26 26 26 26 27 31 32 33 34 32 35 37 34 35 34

GFSSGP_925_spd_123.txt.gz
Wind_Speed
10 5 3 4 4 5 3 5 3 8 6 3 3 3 7 3 4 4 1 4 4 22 29 27 25 24 22 21 21 21 22 21 21 20 20 21 22 23 22 21 21 20 19 19 18 17 15 12 10
8 3 3 2 4 3 5 4 4 4 6 10 4 2 4 2 1 3 3 6 8 23 26 26 24 23 22 21 20 20 20 21 21 21 20 20 21 21 21 21 20 19 18 18 17 15 14 12 10
5 2 3 4 3 4 4 2 7 16 8 3 3 4 2 1 2 2 1 8 11 20 23 25 25 24 22 20 18 18 18 20 20 21 20 20 20 21 21 20 19 18 17 16 15 13 12 11 10
4 6 4 4 4 6 4 7 7 9 5 4 1 5 3 5 1 3 5 7 10 15 20 23 24 23 21 20 19 18 18 19 20 21 21 20 20 20 20 19 19 18 16 16 16 14 13 13 11
5 3 3 0 4 4 4 6 7 6 6 6 6 2 2 5 8 7 5 9 11 14 18 19 20 21 21 20 19 19 19 19 20 21 21 20 20 21 20 20 20 19 18 17 15 15 14 13 12
3 3 3 4 4 2 6 6 6 7 6 7 8 2 2 1 4 7 4 6 10 13 17 19 20 20 20 20 19 19 19 20 20 21 21 22 21 21 21 21 20 18 17 16 15 14 14 12 12
5 4 3 4 3 2 1 7 6 6 7 6 6 2 4 5 8 10 10 7 8 11 16 18 20 21 21 20 19 19 19 20 21 22 22 23 23 22 22 22 21 20 18 17 15 14 13 13 12
4 4 0 3 3 3 3 2 4 7 7 9 1 1 3 6 6 7 9 8 9 12 15 17 18 20 21 21 20 20 20 20 22 24 25 25 25 24 22 22 22 22 21 18 17 16 14 14 13
3 4 2 4 3 3 2 7 5 4 4 5 3 2 8 5 3 5 4 6 8 10 14 17 18 18 20 21 21 21 21 21 22 23 24 25 26 25 23 23 23 23 22 21 19 17 15 14 14
3 3 8 5 3 5 4 4 5 5 7 6 5 3 1 3 5 5 6 9 11 13 14 16 18 19 20 21 22 22 21 22 24 24 22 22 23 24 24 24 23 24 24 22 21 19 17 16 17
3 5 4 5 7 7 6 5 3 4 7 7 8 8 6 6 7 8 10 12 13 14 14 15 19 21 21 21 22 23 23 23 23 23 23 23 23 24 24 24 24 25 25 25 23 21 20 20 20
3 5 3 5 5 6 9 7 4 9 13 6 8 9 5 11 8 11 16 16 7 7 12 14 20 23 21 20 20 22 24 24 24 24 23 25 24 24 26 26 26 26 27 28 26 25 24 24 22
5 4 5 8 9 6 8 9 11 12 13 8 9 10 12 11 11 19 16 8 2 4 5 9 17 22 21 18 18 19 24 25 24 23 24 25 25 26 27 28 28 27 27 29 30 29 28 27 26
3 6 7 6 12 7 10 6 1 8 9 9 9 12 12 10 12 13 17 10 12 10 8 6 9 13 15 13 14 17 22 22 22 22 24 25 26 28 28 28 29 29 29 30 31 32 32 31 30
6 5 5 6 8 6 4 6 6 8 7 10 12 13 10 10 14 16 12 17 20 22 23 20 19 14 10 7 5 8 11 6 5 15 22 21 23 28 28 30 30 30 30 30 30 31 32 32 33
6 3 2 6 5 5 2 4 8 10 14 10 11 12 12 13 9 8 18 20 22 24 22 19 17 17 14 11 9 8 8 5 5 4 10 13 17 23 25 23 25 27 30 31 31 33 32 32 34
3 3 4 6 6 5 2 9 5 11 9 13 10 11 11 9 11 13 22 23 22 22 21 20 16 15 12 8 7 7 8 9 10 10 9 6 13 24 29 33 27 16 23 35 36 33 31 26 28
5 3 3 2 7 13 17 21 14 8 7 9 9 9 8 8 11 19 23 23 24 24 23 21 19 16 12 9 6 4 6 11 9 8 8 10 10 8 18 35 42 36 36 32 34 34 32 32 33
2 3 5 5 10 8 15 20 14 8 7 10 8 7 8 11 11 21 22 22 25 27 25 23 20 19 16 16 14 10 14 10 12 10 10 10 10 12 13 7 16 22 46 35 33 33 31 28 27
7 10 10 6 11 7 12 17 10 4 7 6 9 5 11 10 10 14 20 26 29 27 29 27 24 22 21 17 14 7 11 6 11 9 14 13 16 15 14 12 11 14 29 36 45 36 25 21 22
10 8 11 11 6 5 7 13 10 8 8 8 13 4 9 12 13 13 19 22 27 30 29 28 26 22 24 19 17 15 9 14 11 22 21 21 20 18 17 13 13 15 14 22 22 19 29 16 16
9 9 11 9 4 9 4 12 17 8 14 15 15 15 14 14 14 13 16 20 22 22 27 29 27 28 25 25 23 22 16 11 15 24 27 26 23 20 17 17 17 18 19 18 18 20 25 30 24
8 8 11 13 4 5 4 3 5 8 9 10 12 14 14 12 12 11 12 15 18 23 24 26 27 29 30 29 27 23 20 17 20 24 27 27 26 23 22 18 18 19 20 20 19 21 23 25 33
6 4 0 3 2 6 11 9 4 3 1 8 11 14 14 12 12 13 14 14 15 20 25 25 29 28 32 30 27 23 22 24 22 23 22 23 24 28 25 23 24 23 22 21 21 20 23 20 29
5 3 2 2 0 5 2 1 1 5 8 8 9 8 11 9 7 9 10 16 19 20 24 27 28 28 30 26 23 25 25 22 17 18 19 22 23 22 24 27 28 23 20 20 21 25 27 29 23
6 8 5 4 3 4 4 6 4 9 11 11 9 10 8 5 6 8 12 14 21 24 21 23 22 20 22 23 26 24 21 19 19 17 20 22 22 24 25 25 26 27 26 26 24 23 24 25 30
3 3 3 1 1 1 4 1 4 9 9 9 8 6 7 7 4 3 6 10 13 17 21 25 24 22 22 24 22 21 22 21 21 21 20 21 22 23 24 26 24 25 28 28 28 27 27 24 26
6 7 3 2 3 5 4 4 4 16 14 13 8 7 5 6 5 3 5 11 10 12 14 14 15 14 18 20 19 20 21 21 21 21 21 22 22 24 24 24 25 25 24 25 26 28 27 28 27
3 3 3 4 4 4 2 5 5 15 17 14 12 8 7 7 4 5 8 7 7 11 13 13 14 17 22 24 22 20 21 21 22 21 21 22 23 23 22 23 24 26 26 24 25 27 29 31 29
3 7 7 4 5 4 2 7 4 7 14 16 13 10 8 6 5 5 9 12 14 17 17 19 21 22 24 22 22 21 23 25 23 23 24 25 24 24 22 21 23 23 22 22 24 28 28 28 29

GFSSGP_925_spd_126.txt.gz
Wind_Speed
8 3 2 4 4 5 3 3 2 7 8 1 4 3 4 2 4 4 2 1 6 8 27 26 24 23 21 20 19 19 18 20 21 22 25 25 25 25 23 22 22 22 21 20 19 16 14 12 10
6 3 4 3 4 3 4 4 3 6 5 8 6 3 4 1 1 3 1 0 1 13 26 26 25 24 22 21 20 19 18 19 21 22 23 25 25 24 22 21 22 21 19 17 16 14 13 12 10
4 5 3 4 3 3 3 3 7 8 7 3 3 4 3 1 2 1 2 1 4 17 22 23 22 21 20 20 19 18 18 19 20 22 23 24 24 24 23 22 21 20 19 17 16 15 13 11 9
3 6 4 4 3 4 3 6 5 10 7 6 2 3 2 3 2 1 2 4 6 14 18 21 22 21 21 20 19 18 17 18 19 20 22 23 23 24 23 22 21 20 19 18 17 15 13 11 10
5 3 3 2 2 5 5 5 6 7 5 7 5 3 3 3 1 2 1 3 4 9 15 19 21 21 21 20 19 18 18 18 19 20 21 22 22 23 23 22 22 21 20 19 17 15 14 12 11
4 3 4 2 2 5 6 3 5 6 8 6 7 2 2 5 3 1 1 3 5 7 12 16 18 19 19 19 19 19 19 19 21 22 22 22 23 23 23 22 22 22 20 19 18 17 15 14 12
5 3 4 3 2 5 2 5 4 6 7 6 5 4 5 4 5 5 4 3 7 8 12 14 17 19 18 18 19 19 19 19 20 21 22 23 23 23 22 22 22 22 21 20 19 18 17 15 14
4 4 4 4 3 4 1 6 3 7 6 8 3 4 5 5 6 6 7 6 5 8 12 14 17 18 18 19 20 19 19 19 20 21 22 22 22 23 23 22 22 21 21 20 18 17 16 15 14
2 4 2 4 6 4 3 8 6 4 4 3 3 1 6 7 5 5 6 7 7 7 10 13 16 17 18 18 19 19 19 19 19 21 23 23 23 24 23 24 24 22 21 19 18 18 17 15 15
4 3 7 4 2 2 6 1 5 6 7 5 4 4 8 16 8 7 9 10 10 12 12 14 16 18 18 18 19 19 19 20 20 22 22 23 23 23 23 23 22 22 22 22 20 18 17 16 16
2 5 4 4 4 1 1 5 3 2 6 4 8 11 5 8 13 11 15 15 16 14 14 15 16 18 19 20 20 20 20 20 20 20 20 20 20 23 24 23 24 24 23 23 22 20 19 19 18
2 4 4 6 4 6 6 1 3 7 8 5 9 9 7 11 10 16 20 24 18 13 15 16 17 19 21 21 20 19 19 20 20 20 20 19 18 18 20 24 26 26 26 25 25 23 22 21 21
4 3 6 7 9 7 6 7 6 6 11 8 8 9 12 13 14 25 27 19 16 15 14 15 17 18 20 20 17 15 16 18 18 18 18 19 20 19 19 21 22 26 26 25 25 24 24 24 23
2 4 7 6 11 6 4 5 3 4 5 9 7 9 9 9 15 19 15 13 8 8 7 6 7 5 11 14 11 10 12 14 15 16 15 16 14 14 16 20 23 24 25 25 26 28 28 26 25
4 5 7 6 3 4 2 3 4 4 7 6 9 9 9 12 20 17 15 7 7 11 12 10 6 5 7 7 7 6 6 9 15 14 16 14 11 14 16 25 25 23 20 23 23 26 27 29 28
4 3 3 5 4 2 6 4 7 10 13 15 14 11 10 13 16 22 27 27 22 20 21 19 17 15 13 11 11 11 8 6 6 7 8 9 12 16 24 28 19 22 18 16 17 22 23 26 28
4 3 2 6 3 4 6 3 8 11 8 11 8 9 9 9 17 25 29 30 27 24 23 23 21 20 15 12 9 11 11 10 9 6 4 2 8 13 10 20 39 34 22 16 10 15 19 23 22
4 2 4 5 6 12 10 10 6 7 7 9 8 8 7 13 15 23 29 30 29 27 26 25 25 24 20 14 6 6 10 9 6 4 3 1 2 6 9 8 10 18 23 22 24 20 17 20 23
4 1 4 6 10 5 8 9 9 9 8 9 9 5 11 13 15 24 27 28 30 32 31 31 30 30 28 27 24 12 18 11 8 8 7 5 6 7 8 8 9 10 13 19 28 31 32 31 26
4 2 6 6 7 6 9 11 9 7 6 10 8 10 11 11 15 20 23 27 31 31 31 32 32 30 30 27 24 14 16 8 10 14 14 12 12 10 9 9 10 9 11 13 19 21 30 23 22
5 3 4 7 6 4 8 6 4 7 10 12 15 13 15 13 12 12 19 21 25 27 28 28 29 30 30 28 26 26 16 17 11 25 24 22 18 15 11 9 10 12 11 12 13 21 22 26 17
2 7 6 5 4 4 1 6 4 4 10 12 10 11 10 10 12 11 14 18 20 24 25 27 25 27 27 27 27 25 17 16 18 24 26 24 20 18 16 13 11 12 12 13 14 15 16 18 28
8 7 7 5 6 0 3 3 3 6 7 6 6 8 9 9 9 9 11 12 14 19 23 22 25 24 25 24 26 25 21 20 22 23 26 24 22 20 20 15 15 15 15 16 17 18 18 19 22
1 2 1 3 2 4 10 8 3 3 5 7 6 6 6 7 7 7 9 11 12 16 22 22 25 23 26 26 25 22 20 23 23 25 23 21 22 21 19 20 18 18 15 16 16 19 21 22 22
4 3 3 2 1 5 4 3 10 4 6 9 11 6 5 4 4 3 6 9 17 21 19 18 20 21 23 24 24 21 21 21 21 23 23 26 24 21 22 24 21 19 17 17 18 18 18 20 23
5 8 4 4 3 4 3 5 5 6 6 9 10 6 4 2 5 6 9 11 14 18 21 24 26 25 27 27 26 23 21 21 21 22 24 24 23 23 26 24 24 26 21 21 22 23 24 24 23
4 4 3 3 1 1 4 4 4 8 10 10 9 8 5 3 4 4 9 13 15 18 20 23 24 23 25 26 27 23 22 21 20 21 21 21 22 22 24 28 26 25 25 22 21 23 24 24 25
5 7 3 2 2 4 4 5 6 13 15 12 10 11 8 6 6 5 8 11 13 16 17 17 19 20 23 24 22 21 19 20 19 19 20 21 22 21 23 24 23 25 24 24 23 22 22 25 26
2 2 4 3 4 4 2 6 6 13 15 14 14 9 8 7 6 5 7 9 11 13 13 16 19 20 22 22 21 21 21 24 21 19 22 22 21 21 21 21 21 21 22 23 24 22 23 27 27
4 7 9 4 5 4 2 9 4 5 8 13 10 9 9 8 5 4 5 8 10 11 14 17 19 21 22 21 21 20 19 17 19 20 21 24 25 24 21 21 19 20 20 22 22 23 24 27 29

GFSSGP_925_spd_129.txt.gz
Wind_Speed
6 2 1 2 2 1 1 3 2 7 3 3 4 3 1 2 1 2 2 2 7 9 21 22 22 21 19 18 17 17 17 19 22 23 23 24 25 25 24 23 23 22 21 20 17 15 13 10 8
4 2 3 2 1 0 3 2 8 9 9 10 4 1 2 3 1 1 2 5 3 7 23 24 23 22 20 18 18 17 17 17 20 22 23 24 25 26 24 23 23 23 20 20 19 16 14 12 10
2 3 1 3 2 1 3 1 9 11 6 3 1 3 1 2 2 2 5 3 3 9 19 21 21 20 19 18 17 17 17 17 18 21 23 25 25 25 24 23 23 23 22 21 19 18 16 13 11
1 2 3 1 1 1 2 6 8 10 6 11 3 4 1 4 5 7 5 5 3 7 15 18 19 19 18 17 16 16 16 17 18 19 22 24 25 24 24 24 23 23 22 20 20 18 16 15 12
5 1 2 3 2 2 3 3 4 12 5 13 9 4 2 2 6 5 4 3 2 4 9 13 16 17 17 17 17 16 16 17 19 20 21 23 24 24 24 24 24 23 22 21 19 17 16 15 14
2 1 1 1 2 3 4 4 3 11 8 14 7 6 4 8 8 8 7 5 2 2 6 11 14 16 17 17 18 18 18 18 19 21 22 23 24 25 24 24 23 22 22 21 19 17 16 15 15
2 1 2 4 2 3 2 2 5 6 7 11 5 3 4 9 12 8 8 6 4 4 6 10 13 16 17 17 17 18 18 18 19 21 22 22 23 23 23 23 23 21 21 20 20 19 17 16 15
3 2 3 2 3 1 4 5 3 6 2 9 4 4 5 9 15 9 7 6 5 5 7 9 12 15 16 16 17 17 16 17 18 20 21 22 22 22 22 22 21 21 20 19 19 19 18 17 16
1 1 2 2 5 1 5 8 5 7 3 5 3 4 8 13 20 13 8 6 6 7 8 10 13 15 16 16 17 17 17 16 17 18 19 20 18 19 20 21 21 21 20 19 19 18 17 16 15
2 2 4 2 0 4 8 9 9 8 12 2 8 7 9 18 17 15 15 15 9 10 12 12 13 15 15 15 16 16 17 18 18 18 18 19 19 18 17 19 22 21 21 20 19 17 15 15 13
2 3 3 2 2 4 2 6 2 7 5 10 13 17 17 16 17 17 20 20 16 13 14 15 14 14 15 16 15 16 16 16 18 19 19 18 20 21 20 17 18 18 19 18 19 17 17 16 15
1 3 2 2 2 3 5 2 6 7 8 9 12 11 8 15 15 20 21 19 16 15 15 12 14 15 15 16 15 16 16 15 15 17 18 20 19 19 20 18 18 19 16 17 20 20 20 20 18
2 2 4 5 8 6 5 8 6 7 7 8 8 11 13 12 17 20 18 16 12 10 10 9 8 10 12 13 14 13 14 15 15 14 15 16 17 19 19 16 18 18 18 18 19 23 25 25 24
0 3 8 4 12 5 5 2 6 2 9 10 12 12 12 15 20 21 24 20 19 16 16 14 10 6 4 6 10 10 10 11 13 13 14 13 15 16 15 16 16 19 20 21 24 24 24 24 27
4 6 7 4 1 2 3 2 4 3 11 12 11 11 15 16 21 22 20 22 20 20 19 20 17 14 7 4 1 3 2 6 9 7 9 8 11 14 14 17 18 17 17 12 21 23 24 21 20
2 1 3 1 4 3 1 4 7 14 13 15 9 10 13 17 20 21 22 22 22 22 24 24 21 18 14 13 11 8 6 3 3 2 2 3 6 12 13 15 21 20 12 11 11 19 22 25 26
2 3 2 5 5 6 8 5 11 15 10 12 13 11 12 13 19 22 22 22 23 23 23 25 26 24 18 11 11 12 11 10 9 8 8 7 5 4 7 15 19 22 19 23 18 22 24 25 25
1 2 2 3 4 12 11 10 9 12 11 12 10 9 12 13 14 18 21 22 23 23 24 24 24 25 22 17 8 8 13 12 11 11 10 10 11 9 8 8 9 11 13 16 26 37 36 33 21
3 3 8 8 9 5 7 12 11 13 7 10 7 9 11 12 13 17 20 21 22 25 25 25 25 26 25 22 16 10 12 10 10 12 15 15 15 14 12 12 13 10 10 12 24 22 22 24 21
9 9 11 7 6 7 8 16 12 6 5 6 7 8 9 9 11 14 17 20 23 22 23 22 23 23 22 19 16 9 11 7 7 12 15 16 17 17 13 12 11 10 11 11 12 18 23 28 30
6 8 9 8 7 6 8 6 5 5 7 7 8 8 9 8 8 9 13 16 17 20 20 21 20 21 21 20 17 15 8 10 10 16 15 17 15 15 15 14 13 12 11 12 13 13 16 18 19
6 11 11 8 7 4 5 6 8 4 5 5 5 6 6 6 6 6 7 10 13 14 15 17 17 20 20 20 18 18 14 14 15 16 17 17 14 16 14 14 14 13 12 14 14 13 15 14 17
6 5 6 7 8 5 4 6 2 6 2 4 6 6 5 5 4 4 9 11 13 14 16 15 17 18 20 19 17 16 15 15 16 17 20 17 15 14 15 14 14 15 16 15 16 17 16 16 19
2 1 2 2 3 6 9 9 3 7 6 7 9 8 7 5 2 5 7 8 12 14 16 15 17 16 17 17 16 16 16 17 18 19 18 20 19 18 15 16 17 16 15 16 19 20 18 17 19
5 3 3 3 3 5 3 6 11 8 10 10 14 12 9 4 2 3 8 12 14 16 18 19 19 18 19 19 19 16 16 15 16 17 18 22 21 20 20 21 19 18 19 19 20 23 24 21 20
6 7 4 4 3 3 3 6 3 4 7 7 10 11 8 5 2 5 8 11 13 16 19 20 21 20 21 20 19 18 18 17 16 18 18 18 20 21 22 22 22 21 21 20 20 23 25 24 24
4 6 2 4 1 5 5 7 4 9 7 9 12 12 10 5 3 5 8 10 13 17 17 17 19 20 20 21 20 19 19 20 19 19 18 19 19 21 21 22 23 22 23 23 23 23 24 26 27
6 6 3 1 4 6 6 7 9 9 13 13 15 14 11 10 7 4 6 9 11 12 13 15 17 19 19 19 19 19 19 18 18 17 18 19 19 19 20 22 23 24 23 22 23 23 22 25 26
4 4 2 2 3 4 7 7 5 11 13 17 17 15 12 11 8 5 6 8 10 11 13 15 15 16 19 19 19 19 19 18 19 18 20 20 20 21 20 21 23 24 24 23 24 24 25 24 24
3 5 8 7 7 5 5 11 1 5 7 12 10 8 10 9 8 5 6 8 10 12 13 14 14 15 16 16 17 17 18 18 19 18 19 19 20 21 22 21 20 22 21 22 23 24 23 25 26

GFSSGP_925_spd_132.txt.gz
Wind_Speed
6 4 4 5 5 5 4 6 3 6 2 4 4 4 8 7 8 5 6 6 3 5 13 18 19 20 20 20 19 19 20 21 22 22 21 22 22 23 22 23 24 23 21 17 18 16 12 11 9
2 3 5 3 7 6 7 3 8 7 7 6 2 4 2 6 6 6 4 9 4 4 14 15 19 19 20 19 19 19 18 20 22 21 20 22 23 23 22 22 22 23 22 20 18 16 14 12 10
2 2 4 4 4 4 5 6 8 5 6 2 1 2 4 5 9 5 9 10 7 7 11 13 17 17 17 18 18 17 17 17 20 21 21 21 22 24 23 22 21 21 21 20 19 18 16 13 11
4 6 4 6 1 5 4 6 8 3 5 8 3 5 5 9 5 9 8 9 8 5 6 10 15 16 16 16 17 17 16 16 17 20 21 22 23 23 22 22 21 20 20 19 19 17 16 15 13
4 3 5 3 2 3 2 5 6 8 3 5 6 5 6 9 7 9 9 8 6 3 3 5 12 13 14 14 14 14 15 16 17 18 21 22 23 23 22 21 21 21 20 19 18 18 16 15 13
5 3 7 5 3 5 3 3 3 6 5 9 6 5 9 6 10 8 7 7 4 2 1 4 9 13 13 13 14 14 14 15 16 17 19 21 22 22 21 22 22 22 20 19 18 17 15 14 13
9 5 5 3 2 5 4 0 5 6 3 11 7 3 3 11 13 9 6 6 4 2 1 3 5 9 13 13 14 14 14 14 15 17 18 19 20 21 21 21 22 22 20 19 18 16 14 14 13
4 4 5 3 4 4 3 1 4 6 5 9 6 3 3 12 14 11 5 4 4 4 2 4 6 7 8 9 14 14 14 15 15 16 17 19 19 20 21 21 22 22 20 19 18 17 15 14 14
3 5 6 2 5 7 2 4 2 4 2 5 4 8 13 16 17 13 10 6 6 5 5 6 6 7 8 9 9 13 15 15 15 16 17 18 16 17 19 20 20 23 21 19 18 17 16 15 15
5 6 4 5 4 3 1 6 9 6 9 1 8 9 13 15 16 16 16 14 12 7 7 6 6 7 7 8 8 8 10 11 13 14 14 16 16 17 18 19 23 22 21 19 18 18 17 16 14
0 6 2 4 3 5 6 9 7 8 6 11 11 10 12 13 15 16 18 18 15 11 9 8 7 6 6 7 8 8 9 9 11 14 15 15 17 19 19 19 18 20 20 18 20 19 17 16 16
6 2 3 3 1 4 7 7 7 7 5 6 7 10 12 13 14 16 16 17 14 11 13 12 10 6 5 7 8 8 7 7 9 11 12 16 17 17 19 20 20 18 20 21 20 19 19 19 19
7 3 4 5 8 8 8 10 9 4 4 3 6 10 11 13 16 16 16 16 15 15 15 16 15 11 8 5 5 6 9 8 8 8 11 14 19 18 18 18 18 17 18 20 20 19 20 20 20
2 5 9 7 11 9 9 4 5 8 5 5 5 9 11 13 15 15 18 18 17 16 17 16 16 15 11 5 2 3 4 6 7 7 7 10 13 16 17 18 18 19 19 18 19 22 21 21 19
4 9 8 5 2 4 5 9 8 4 5 5 4 7 10 11 14 15 15 16 16 15 16 19 17 16 14 13 9 9 7 3 1 2 5 6 4 8 14 17 18 20 19 18 15 19 22 22 19
6 5 7 7 3 1 5 4 11 2 6 8 8 6 7 11 13 13 14 14 15 16 18 18 18 17 14 13 13 11 13 10 9 8 6 4 6 7 9 8 9 13 17 16 15 18 19 25 19
6 8 5 4 2 2 3 8 7 9 10 9 8 4 6 8 11 13 13 14 15 17 18 19 20 21 18 13 8 9 10 9 9 9 10 12 11 10 9 9 12 14 11 16 18 21 19 20 23
5 7 7 7 2 9 15 17 12 10 10 9 4 4 6 8 9 10 12 13 15 16 17 18 19 20 17 15 9 7 8 8 8 9 11 12 11 12 11 9 9 9 10 12 17 21 21 19 17
5 9 13 11 9 11 13 13 13 11 11 8 3 4 6 8 9 10 11 12 13 16 17 20 20 21 19 18 16 8 12 9 9 10 13 13 13 12 11 10 11 10 10 12 15 17 18 24 27
10 12 14 11 5 8 14 16 17 6 2 2 1 5 6 8 7 9 10 11 14 15 17 18 20 20 19 16 15 12 12 7 7 11 13 14 15 14 12 12 12 11 12 12 12 12 12 15 19
12 12 13 11 11 15 14 20 8 5 4 3 3 3 4 4 6 7 9 11 13 15 17 17 18 18 19 18 15 14 10 11 9 14 13 16 15 14 13 12 12 12 12 13 15 13 13 13 14
12 7 11 11 8 7 2 7 8 10 7 6 5 5 5 6 4 5 6 9 11 11 12 14 15 17 18 18 16 16 14 14 14 14 15 16 14 15 15 14 13 13 14 13 16 15 15 14 17
7 2 5 8 11 13 13 7 4 8 10 10 9 8 8 6 5 5 6 7 10 12 13 13 14 14 16 16 16 15 14 14 15 16 18 16 15 14 15 15 16 16 16 15 16 19 17 17 19
1 7 9 9 9 10 12 11 5 9 11 10 10 10 10 8 6 5 5 7 10 12 12 12 14 15 16 16 16 16 16 17 17 18 18 18 18 16 15 16 18 16 16 16 18 19 20 19 19
11 6 5 6 6 8 4 7 15 8 6 5 11 12 12 9 5 3 4 6 9 11 12 13 15 15 16 16 16 15 16 16 16 17 17 20 19 18 19 21 19 19 19 19 21 22 22 21 21
12 11 6 7 7 9 9 7 2 0 5 7 8 10 12 9 5 4 4 6 8 10 12 13 14 15 16 16 16 15 15 15 15 16 17 17 18 19 20 21 21 19 19 19 19 21 23 21 23
7 8 9 15 16 12 13 17 11 8 8 9 11 11 12 10 7 5 4 6 8 10 11 12 13 14 15 15 16 16 15 16 17 16 17 17 17 19 20 20 21 20 20 19 19 20 21 21 24
9 3 7 7 9 17 13 13 11 11 12 12 14 15 14 11 9 5 4 5 7 8 9 10 12 13 13 14 15 15 16 16 16 16 17 18 19 19 20 21 21 21 21 21 20 20 19 21 23
7 11 9 11 11 13 15 13 7 2 4 12 14 15 14 13 9 7 5 4 6 6 7 8 10 11 13 14 15 16 17 17 17 17 18 19 19 20 20 20 21 22 23 22 22 22 23 23 23
9 15 16 12 13 7 12 17 3 3 6 6 9 12 12 13 9 8 7 5 4 5 5 7 8 10 12 12 13 15 15 17 18 18 19 19 19 19 19 20 21 23 24 23 23 22 21 22 24

GFSSGP_925_spd_135.txt.gz
Wind_Speed
10 8 9 9 7 7 4 7 4 3 4 6 4 5 10 17 14 5 15 10 5 6 10 16 17 16 15 14 14 15 16 17 17 18 18 18 19 19 19 19 19 18 16 14 14 13 11 9 8
8 9 10 7 8 10 7 6 4 5 5 1 2 3 2 13 12 13 14 12 7 3 9 12 17 16 15 13 13 14 15 15 16 17 18 18 19 20 19 19 19 18 16 14 15 13 10 9 7
9 8 10 5 9 8 8 8 4 5 3 1 2 3 6 5 12 12 11 11 9 8 7 11 13 15 14 13 11 11 12 14 16 17 18 18 19 20 19 19 19 18 17 15 15 13 11 9 8
8 8 6 9 13 6 8 6 2 5 4 3 4 11 10 9 5 8 9 10 10 7 6 6 12 13 13 13 12 11 11 11 14 17 18 18 19 19 19 19 20 19 18 17 14 12 12 11 10
12 8 11 11 2 3 1 4 4 4 5 3 6 8 11 10 9 9 9 9 8 7 5 3 9 10 10 11 12 12 12 11 11 14 17 18 19 20 20 19 19 19 18 17 16 13 13 13 12
7 5 11 11 8 5 2 2 2 2 3 7 5 10 7 11 11 9 8 9 8 7 4 1 4 8 10 10 11 12 12 12 12 13 15 17 19 20 21 21 20 20 19 17 17 16 15 14 13
12 11 14 11 3 7 6 3 1 3 3 8 5 2 7 13 11 8 5 6 7 7 5 1 3 6 11 11 12 12 12 13 13 15 16 17 18 19 21 21 21 22 21 19 19 18 17 16 15
7 8 17 11 8 3 6 1 2 3 10 5 6 2 5 12 11 8 4 2 3 4 3 3 2 5 7 8 11 12 13 13 14 15 17 18 19 20 21 21 22 21 21 20 20 19 18 17 16
7 10 12 9 4 8 4 6 8 1 6 2 1 6 10 11 9 8 7 4 3 2 2 3 4 4 6 7 8 9 13 14 15 15 16 18 17 18 20 22 21 22 22 22 22 20 19 18 17
9 10 6 11 7 4 2 6 5 6 6 6 2 5 6 9 9 9 10 10 9 8 5 10 6 6 7 8 7 6 8 8 10 12 13 14 16 18 20 22 23 25 24 23 23 21 19 19 15
4 12 8 5 5 5 7 8 3 9 9 4 5 6 7 8 8 10 12 15 15 12 15 14 15 11 8 11 9 10 11 7 8 11 13 14 16 19 19 21 19 21 24 23 23 21 21 20 19
9 6 4 0 3 7 9 9 10 7 7 4 1 6 6 7 8 12 13 13 14 12 13 13 14 12 11 9 10 6 4 6 7 8 9 12 15 16 18 21 21 23 23 25 26 25 24 23 22
12 10 3 7 8 11 9 11 11 9 3 3 1 6 6 7 9 11 12 12 12 13 15 15 14 13 11 10 6 6 4 5 7 8 7 10 12 14 15 19 20 21 23 26 28 29 27 27 26
4 7 10 10 11 11 12 12 6 9 6 4 5 4 6 8 10 10 12 13 13 12 14 15 15 15 12 11 9 6 6 4 2 3 4 6 9 12 16 16 18 22 23 25 27 27 27 25 24
10 12 14 14 12 8 6 14 13 7 7 8 8 11 4 5 8 10 11 11 12 13 14 16 15 15 14 11 10 10 10 10 9 8 8 8 8 8 10 12 13 17 21 24 25 26 31 20 20
10 12 13 9 8 7 7 11 13 10 7 8 9 7 2 5 6 9 10 10 12 13 14 15 16 15 14 12 10 9 10 10 11 12 13 12 13 13 14 12 14 17 14 12 15 19 16 19 17
13 11 14 10 9 4 9 9 4 12 8 11 9 3 4 3 3 7 8 10 11 13 14 16 16 17 15 13 9 9 10 10 10 10 12 15 14 15 14 12 12 15 15 15 10 13 11 13 18
12 9 10 9 6 9 13 16 16 15 11 13 9 2 4 2 4 6 8 9 12 13 14 15 17 19 15 13 10 7 9 8 9 10 13 15 14 15 15 12 13 15 14 14 12 11 11 14 18
11 14 16 15 11 13 16 19 16 12 13 14 11 8 6 6 6 6 7 10 11 14 15 16 17 19 17 16 15 13 12 10 10 11 13 14 16 16 16 14 15 15 15 16 16 14 13 15 14
13 16 17 16 15 9 17 20 18 16 9 8 6 7 9 9 8 7 7 8 9 11 13 15 17 18 19 16 15 14 12 11 9 12 13 14 17 16 15 15 15 16 17 17 16 15 16 15 14
15 16 16 17 16 14 20 23 21 12 4 6 7 4 8 9 9 8 7 5 6 8 11 13 14 15 16 16 14 15 12 12 13 16 15 18 17 16 16 16 16 16 15 15 16 16 17 19 16
16 11 8 12 12 11 1 13 15 11 13 11 11 10 9 8 7 7 6 5 7 8 9 10 12 14 15 16 15 15 14 15 15 16 16 18 16 17 16 17 17 17 17 16 15 15 16 17 21
11 5 10 11 12 15 18 12 13 7 12 15 12 11 10 10 9 7 6 6 8 8 8 9 10 13 14 14 14 14 15 15 15 17 19 17 17 16 17 17 18 19 19 18 18 17 16 16 19
5 9 12 12 12 14 18 18 16 12 12 12 13 11 11 11 8 8 6 5 7 8 9 10 11 13 14 15 15 15 15 15 17 18 18 18 18 18 17 19 20 19 19 19 20 20 19 18 19
9 10 8 10 11 14 8 8 12 2 8 2 9 10 11 11 10 7 5 6 6 8 9 9 11 13 14 14 14 14 14 14 15 17 17 19 19 19 20 22 21 20 20 21 21 21 21 20 21
10 11 10 15 14 14 7 8 7 4 8 9 4 9 12 12 9 7 5 5 6 7 8 9 10 10 12 13 13 14 14 14 14 15 16 16 17 18 20 20 20 20 20 20 20 20 21 20 22
9 9 13 16 17 16 20 27 24 13 10 9 10 11 13 13 10 8 8 7 6 6 8 8 8 9 11 12 12 13 14 14 15 15 15 16 16 18 19 19 19 19 20 20 20 21 21 22 23
14 13 8 7 8 20 17 20 15 10 9 10 11 13 14 13 11 9 8 7 6 6 7 7 6 7 9 10 11 12 14 15 15 15 16 17 18 18 19 19 19 19 20 21 20 20 21 23 23
13 15 15 17 15 16 18 15 7 4 8 13 14 13 13 16 13 10 8 8 6 6 6 5 5 6 8 9 10 12 13 13 14 15 16 17 18 19 20 21 21 22 22 21 20 20 19 20 22
12 17 18 12 13 15 11 14 14 2 10 6 8 14 13 16 14 11 9 9 8 6 5 4 4 6 7 7 8 10 11 12 13 15 16 17 19 20 21 22 23 24 25 24 22 20 20 21 23

GFSSGP_925_spd_138.txt.gz
Wind_Speed
15 18 13 14 5 8 16 5 7 5 4 12 6 6 18 20 16 6 9 11 10 15 12 13 12 10 8 6 6 8 9 10 12 11 11 10 11 12 13 14 13 13 13 12 10 9 7 6 5
14 15 11 6 7 11 4 8 10 11 11 6 2 4 16 17 15 13 12 10 7 15 10 10 11 10 7 6 6 7 8 9 11 11 11 12 12 13 13 14 14 13 13 12 12 10 8 6 5
15 14 6 6 11 11 7 11 8 8 3 1 1 12 9 10 14 14 12 13 14 16 10 10 9 10 9 7 7 7 8 9 10 11 12 13 13 14 15 15 15 14 13 11 12 11 10 7 6
9 9 6 8 14 9 11 10 4 6 4 3 4 13 13 13 12 14 12 15 14 14 9 6 7 10 9 9 8 8 8 8 10 12 13 13 14 15 16 16 16 16 15 13 12 13 12 11 9
13 7 10 13 19 12 5 8 6 4 8 6 6 19 16 16 13 12 16 14 14 12 8 8 8 9 9 9 9 9 9 9 9 11 13 14 15 16 17 17 17 18 17 17 16 14 14 13 12
7 10 10 13 6 11 6 8 4 3 5 7 5 13 13 13 12 9 14 13 12 12 5 6 2 6 8 9 10 10 10 10 10 10 12 14 16 17 18 19 19 19 19 19 19 17 16 15 14
12 11 14 17 17 8 10 6 1 3 2 10 6 2 10 14 10 7 9 8 10 9 9 5 5 3 5 8 9 11 11 11 12 12 12 13 15 17 18 20 21 21 21 19 19 19 18 17 16
6 10 16 15 10 13 11 6 7 4 8 1 5 4 9 10 7 7 7 6 8 7 7 6 5 7 6 6 8 10 11 12 12 13 13 14 15 17 19 21 22 23 23 22 21 21 20 20 19
12 9 11 12 12 11 6 4 10 5 6 4 0 11 11 11 10 9 7 8 9 14 22 18 12 7 3 6 9 6 9 12 12 13 13 14 16 16 20 22 24 25 25 25 24 23 23 22 21
7 9 11 9 10 8 4 4 4 1 10 6 7 9 13 10 13 13 12 15 21 25 22 20 14 12 10 7 10 10 7 8 5 6 7 11 15 15 17 20 23 26 25 26 26 26 26 23 23
12 13 8 4 8 9 8 3 6 2 7 8 7 6 10 7 11 11 14 13 15 18 21 19 18 14 17 15 14 4 4 0 2 3 5 9 13 14 18 21 22 24 25 26 29 29 29 30 29
7 14 10 10 4 5 5 7 7 7 5 7 7 9 6 7 8 10 11 12 13 16 17 19 18 15 15 17 14 12 10 9 5 5 8 9 12 13 15 17 21 19 22 25 32 27 33 35 31
10 14 12 4 7 8 9 10 10 11 5 5 12 8 7 7 9 11 10 11 12 15 17 17 17 17 17 15 14 13 11 9 9 7 7 9 12 15 14 14 16 19 20 26 30 29 31 32 32
14 10 13 11 11 11 11 12 11 11 9 8 7 13 8 6 7 10 10 10 12 14 15 16 16 16 14 14 15 12 13 13 11 10 12 12 12 13 15 16 16 17 16 20 25 31 31 29 22
9 14 16 18 16 17 10 11 19 13 14 8 9 13 10 6 8 10 9 10 11 13 13 16 16 18 15 13 12 14 16 14 14 15 14 14 14 16 16 16 17 19 22 22 21 19 22 30 24
13 14 14 15 19 7 3 12 18 13 13 9 9 14 11 9 8 9 8 9 12 13 14 14 16 17 16 13 10 11 13 11 13 14 15 15 17 16 15 17 17 17 18 20 18 17 16 15 17
13 12 13 11 13 9 11 9 7 12 11 9 8 8 12 10 8 8 7 9 11 12 14 16 17 18 17 17 14 13 12 13 12 15 18 18 17 19 17 17 17 18 19 19 18 19 18 14 10
13 11 11 10 12 10 10 14 14 12 12 14 9 8 13 10 10 8 6 9 12 13 14 15 17 18 16 16 15 16 14 13 14 16 18 17 21 20 19 18 18 19 19 20 21 20 18 16 17
14 14 15 15 17 14 14 15 13 16 19 17 11 12 13 11 11 8 6 8 10 12 13 14 15 16 17 16 16 15 14 14 12 16 15 18 21 21 20 21 20 20 19 19 18 18 19 17 14
12 14 16 17 16 15 18 18 17 19 19 16 11 7 14 14 10 7 5 7 8 10 12 13 15 16 17 14 13 13 12 12 14 15 15 19 20 20 20 20 20 21 22 21 22 20 20 19 17
14 15 16 18 16 15 17 22 21 23 20 8 3 3 15 13 12 10 6 2 5 8 10 11 14 15 17 17 16 16 14 14 18 18 18 21 19 19 20 19 19 21 20 20 21 21 20 19 21
18 16 15 11 9 11 12 15 15 15 9 9 9 8 10 11 12 12 10 7 6 7 8 10 12 14 15 17 17 17 16 14 17 18 21 19 20 20 21 21 22 22 21 20 21 20 19 18 18
19 8 7 11 12 13 17 10 19 15 17 17 14 11 11 10 10 10 8 11 7 6 8 9 11 13 14 15 16 16 15 15 15 18 18 20 20 21 22 25 24 24 21 20 21 21 19 17 15
8 4 11 13 10 12 17 14 18 14 7 18 17 15 14 14 13 12 12 10 9 6 7 8 10 11 12 13 14 15 15 15 16 19 18 20 20 21 23 24 23 21 21 22 21 20 19 19 18
8 9 5 6 9 11 17 12 10 14 3 13 19 17 15 14 13 13 11 12 9 6 6 8 9 11 11 12 14 15 15 15 16 17 18 19 20 21 22 24 23 21 22 21 21 20 19 19 18
17 13 7 9 10 14 21 13 9 8 8 13 16 17 17 14 13 12 12 12 11 7 6 7 9 10 10 12 13 14 15 14 15 16 16 17 18 19 21 22 22 22 22 22 22 21 20 20 20
13 12 14 12 13 12 14 21 18 18 15 9 9 10 16 16 14 13 14 13 12 11 7 7 9 9 10 11 11 12 13 14 14 15 16 17 18 18 20 22 23 23 23 24 23 21 21 21 21
8 10 8 4 3 12 13 16 8 11 8 4 2 5 11 15 16 13 13 15 12 12 9 7 8 10 9 9 10 10 11 11 12 13 15 16 16 18 19 21 23 24 27 27 25 24 22 23 23
12 12 11 9 9 11 13 11 8 10 8 4 6 8 18 16 14 14 15 17 15 11 11 8 7 9 8 8 8 8 9 9 10 12 14 16 16 18 20 21 23 24 26 28 26 24 22 23 24
3 11 11 5 6 2 4 8 13 7 2 10 15 8 13 4 13 13 16 19 15 12 11 7 7 8 7 6 7 7 7 8 10 12 13 15 16 18 19 21 24 25 27 28 26 25 24 25 25